Tracking 29892 objects as of 21-Nov-2024
HD Live streaming from Space Station
objects crossing your sky now

ATLAS 5 CENTAUR DEB

Track ATLAS 5 CENTAUR DEB now!


NORAD ID: 43958
Int'l Code: 2014-055M
Perigee: 7,927.2 km
Apogee: 34,533.1 km
Inclination: 19.8 °
Period: 760.6 minutes
Semi major axis: 27601 km
RCS: Unknown
Launch date: September 17, 2014
Source: United States (US)
Launch site: AIR FORCE EASTERN TEST RANGE (AFETR)

Note: This is SATELLITE DEBRIS
Your satellite tracking list
Your tracking list is empty




NASA's NSSDC Master Catalog

Two Line Element Set (TLE):
1 43958U 14055M   24315.34788473  .00000012  00000-0  00000-0 0  9996
2 43958  19.7668 194.4084 4819718  78.0093 330.3552  1.89327189 42840
Source of the keplerian elements: AFSPC